Lid_Strength_Index
3 3 3 3 4 4 4 4 4 4 4 4 4 4 4 4 4 4 4 4 4 4 4 4 3 2 5 9 9 6 -4 -2 1 6 7 8 10 10 10 11 11 12 11 11 10 11 7
3 3 3 3 3 4 4 4 4 4 4 4 4 4 4 4 4 4 4 4 4 4 4 4 3 2 7 13 9 4 2 2 4 7 7 8 9 8 9 10 11 10 10 10 10 10 10
4 4 4 4 4 4 4 4 4 4 4 4 4 4 5 5 4 4 4 4 4 4 4 3 3 3 6 11 5 5 6 8 6 6 8 8 7 8 8 9 9 10 11 10 10 11 8
4 4 5 5 5 5 5 5 4 4 4 4 4 4 4 4 4 4 4 4 4 4 3 2 1 4 11 7 5 5 6 6 6 6 7 7 7 8 9 8 8 10 12 13 10 10 8
3 3 4 4 4 4 4 5 5 5 5 5 5 5 4 4 4 4 4 5 4 2 2 1 5 6 11 5 5 4 5 6 5 6 7 5 7 9 8 11 12 12 13 13 10 10 10
4 4 4 4 4 4 4 4 4 4 5 5 5 5 5 5 4 4 4 4 4 2 2 2 3 9 9 8 5 5 6 5 5 6 7 8 9 11 12 12 15 14 13 13 12 10 10
4 3 3 3 3 4 4 4 4 4 5 5 5 5 5 5 5 5 6 7 9 10 8 9 9 9 7 5 3 5 5 5 6 8 11 9 11 13 11 10 10 11 12 12 10 9 11
4 4 4 4 4 4 5 4 4 5 5 5 5 5 4 5 6 5 8 9 9 9 12 8 8 7 6 5 7 5 5 8 8 10 9 11 13 10 9 9 9 10 12 12 11 9 11
4 4 4 4 4 4 5 5 5 5 5 5 4 4 5 5 5 8 10 8 8 9 12 9 8 8 8 6 7 6 5 8 9 10 11 12 10 8 9 10 10 11 12 12 12 10 11
5 5 4 4 4 4 4 5 5 5 5 5 5 5 5 5 8 10 9 7 9 9 14 10 8 8 8 6 7 4 5 7 9 10 10 11 9 9 10 10 10 12 10 10 10 12 15
5 5 5 5 5 5 4 5 5 5 5 5 5 5 5 6 10 11 8 8 7 8 19 8 8 6 8 8 7 6 4 7 10 9 9 10 10 10 10 10 9 10 9 10 10 12 14
5 5 6 5 5 5 5 5 5 5 5 5 5 5 5 8 11 10 8 9 9 14 18 10 9 10 10 8 7 8 7 6 7 9 9 9 7 8 9 8 9 8 10 11 12 14 16
5 5 6 6 6 6 5 5 6 6 5 5 5 5 7 8 11 10 9 9 15 17 10 9 10 10 11 10 9 8 10 11 11 14 13 11 10 9 7 10 10 11 14 16 17 17 17
4 5 5 6 6 5 5 5 5 6 5 5 6 6 8 7 9 8 9 13 18 13 11 8 9 10 11 10 10 9 10 12 11 11 13 14 14 10 8 9 11 12 13 16 18 18 16
5 5 5 5 5 5 5 5 5 6 6 6 7 11 11 10 8 9 11 17 16 13 9 9 11 12 12 11 11 11 11 11 10 10 12 13 12 8 8 8 9 12 14 12 14 15 16
5 6 6 6 5 5 5 5 5 5 6 6 11 12 11 8 7 9 13 14 13 9 8 8 12 11 14 13 13 13 12 9 9 9 10 11 13 9 8 9 10 10 10 14 15 18 19
5 5 5 5 5 6 6 5 5 5 6 7 12 13 10 7 8 11 15 14 11 8 8 9 11 11 12 13 13 13 12 9 8 9 10 12 12 11 10 11 12 12 13 13 13 15 17
5 5 5 5 5 5 6 6 5 5 6 10 14 17 9 7 12 13 14 12 9 9 7 8 9 10 11 12 13 13 12 10 8 9 11 11 14 14 12 9 9 10 12 12 15 15 15
4 5 5 5 5 5 6 6 6 6 7 13 16 14 9 8 15 14 12 10 9 9 9 9 10 9 9 11 13 12 11 8 9 9 11 11 14 16 14 13 11 11 11 12 13 14 15
4 5 5 6 5 5 6 6 6 6 7 12 15 16 13 11 11 13 13 12 11 8 9 9 10 9 10 11 11 12 11 9 8 9 5 7 13 14 15 13 12 12 11 11 12 16 15
5 6 6 6 5 6 6 6 6 6 7 12 15 15 14 15 13 13 13 12 12 11 9 9 11 10 11 13 12 12 10 9 8 7 8 11 14 12 12 10 10 11 10 11 13 13 14
6 6 6 5 6 6 6 6 6 6 7 13 15 15 13 14 13 13 13 14 13 11 12 13 12 11 11 13 11 12 11 11 10 9 11 11 14 13 13 11 10 11 10 10 10 11 12
6 6 6 6 6 6 6 6 6 6 9 14 13 12 13 14 14 14 14 13 13 12 11 10 10 11 12 10 9 9 8 8 9 10 11 12 14 14 16 12 11 13 11 10 10 10 11
6 6 6 6 6 6 6 6 6 6 7 12 13 13 15 16 14 14 13 12 13 12 13 10 9 11 8 7 8 9 9 9 8 8 8 11 13 13 15 13 18 11 9 9 9 9 10
6 6 6 6 6 6 6 6 6 6 5 10 11 12 14 16 14 13 13 13 13 12 12 10 10 8 8 9 11 13 14 13 11 9 9 8 12 13 15 16 13 11 9 10 11 10 8
6 5 6 6 6 6 6 6 6 6 5 9 11 11 12 15 15 12 14 13 15 15 14 11 9 8 8 9 12 17 17 13 13 11 9 10 10 11 14 18 19 12 8 6 7 12 8
6 6 5 5 5 5 6 6 6 6 5 8 11 10 10 13 12 12 15 14 13 14 15 13 11 11 9 11 13 15 15 11 15 15 14 13 13 13 13 15 13 9 8 7 13 11 8
5 5 5 5 5 5 5 6 5 5 5 8 10 9 10 12 12 10 10 12 12 13 15 13 13 11 10 13 13 13 14 13 13 11 12 13 15 15 15 16 16 7 8 11 9 8 7
5 5 5 5 5 5 5 5 5 5 5 6 10 9 7 10 12 9 8 8 9 9 13 13 13 12 10 13 12 13 14 13 13 16 10 14 11 13 13 13 8 7 7 7 7 8 7